Location: Eaton
(41.3139°N, 82.0207°W)
Time: 00:21:09
(UTC+00:00)

USA 281 - Pass Details

Date: 17 June 2021
Orbit: 1078 x 1081 km, 106.0° (Epoch: 18 July)

Event Time Altitude Azimuth Distance (km) Brightness Sun altitude
Rises 08:12:47 0° 153° (SSE) 3,864 5.9 -15.0°
Reaches altitude 10° 08:15:17 10° 153° (SSE) 2,912 5.2 -14.7°
Maximum altitude 08:21:51 88° 67° (ENE) 1,087 3.2 -13.9°
Drops below altitude 10° 08:28:27 10° 337° (NNW) 2,930 5.8 -13.1°
Sets 08:30:58 0° 338° (NNW) 3,889 6.5 -12.8°
